Regional Weather Roundup
Issued by NWS

Home | Current Version | Previous Version | Graphics & Text | Print | Product List | Glossary On
Versions: 1 2 3 4 5 6 7 8 9 10 11 12 13 14 15 16 17 18 19 20 21 22 23 24 25 26 27 28 29 30 31 32 33 34 35 36 37 38 39 40 41 42 43 44 45 46 47 48 49 50
482
ASUS43 KFSD 202002
RWRSD

WEATHER ROUNDUP FOR SOUTH DAKOTA
NATIONAL WEATHER SERVICE SIOUX FALLS SD
200 PM CST TUE FEB 20 2018

NOTE: "FAIR" INDICATES FEW OR NO CLOUDS BELOW 12,000 FEET WITH NO
SIGNIFICANT WEATHER AND/OR OBSTRUCTIONS TO VISIBILITY.


SDZ001>005-009-010-012>017-202100-
NORTHWEST AND NORTH CENTRAL SOUTH DAKOTA

CITY           SKY/WX    TMP DP  RH WIND       PRES   REMARKS
BUFFALO          N/A      2  -6  69 W18       30.00S WCI -19
FAITH            N/A      3  -4  72 W13       30.13S WCI -14
MOBRIDGE       FAIR      11   0  61 NW15      30.14S WCI  -5
$$

SDZ012>016-024>037-041>051-057-063-072>074-202100-
SOUTHWEST AND SOUTH CENTRAL SOUTH DAKOTA

CITY           SKY/WX    TMP DP  RH WIND       PRES   REMARKS
RAPID CTY ARPT FAIR       2  -4  76 S10       30.10S WCI -14
PIERRE         FAIR       9   2  73 NW18      30.20R WCI -10
CUSTER         FAIR       8  -8  48 W10       29.83S WCI  -6
ELLSWORTH AFB  FAIR       5  -6  61 S6        30.09S WCI  -6
PHILIP         FAIR       6  -2  69 W14       30.19S WCI -11
PINE RIDGE     FAIR       5  -4  66 W7        30.12S WCI  -7
SPEARFISH        N/A      5  -6  61 N13       30.02S WCI -12
WINNER         FAIR      10   0  63 NW18      30.18S WCI  -8
$$

SDZ004>011-016>023-039-040-202100-
NORTHEAST SOUTH DAKOTA

CITY           SKY/WX    TMP DP  RH WIND       PRES   REMARKS
ABERDEEN       FAIR      12   2  64 NW18      30.16R WCI  -6
WATERTOWN      CLOUDY     9   3  77 NW22      30.07R HAZE    WCI -11
BROOKINGS      FAIR       9   2  73 NW20        N/A  WCI -10
SISSETON         N/A     11   4  73 NW26      30.10R WCI -10
$$

SDZ017-020-022-023-036>040-048>070-202100-
SOUTHEAST SOUTH DAKOTA

CITY           SKY/WX    TMP DP  RH WIND       PRES   REMARKS
SIOUX FALLS    FAIR      12   4  70 NW20      30.13R WCI  -6
HURON          FAIR      11   3  70 NW21      30.17R WCI  -8
CHAMBERLAIN    FAIR      11   4  73 W16       30.20R WCI  -6
MITCHELL       FAIR      11   4  73 NW20      30.20R WCI  -7
YANKTON        FAIR      11   5  77 NW20      30.19R HAZE    WCI  -7
$$

ABBREVIATIONS USED IN REMARKS
   TC - TEMPERATURE IN CELSIUS
  WCI - WIND CHILL INDEX
   HX - HEAT INDEX
  VSB - VISIBILITY





USA.gov is the U.S. government's official web portal to all federal, state and local government web resources and services.